Terminal Aerodrome Forecast
Issued by NWS Denver/Boulder, CO

Home | Current Version | Previous Version | Text Only | Print | Product List | Glossary On
Versions: 1 2 3 4 5 6 7 8 9 10 11 12 13 14 15 16 17 18 19 20 21 22 23 24 25 26 27 28 29 30 31 32 33 34 35 36 37 38 39 40 41 42 43 44 45 46 47 48 49 50
000
FTUS45 KBOU 200802 AAA
TAFDEN
TAF AMD
KDEN 200802Z 2008/2112 23007KT P6SM FEW080 BKN120
     FM201500 VRB05KT P6SM SCT120
     FM202000 04010KT P6SM SCT090 BKN120
      TEMPO 2021/2101 VRB20G35KT -TSRA BKN070CB
     FM210200 15013KT P6SM SCT090 BKN120
     FM210600 19010KT P6SM SCT120 SCT200=

USA.gov is the U.S. government's official web portal to all federal, state and local government web resources and services.